Wind_Speed
30 31 28 28 30 25 20 19 18 17 19 19 18 18 18 18 18 17 16 16 16 16 17 16 16 16 17 16 15 15 17 17 16 15 14 13 13 13 12 12 12 12 13 13 14 14 14 13 13 14 14 15 15 15 16 16 16 17 17 17 17 17 16 16 16 16 17 17 17 17 18 18 18 18 18 18 18 18 18 18 18 18 17 17 17
33 35 34 32 31 28 25 23 20 19 19 20 19 20 20 19 18 17 17 16 16 16 16 16 15 15 16 16 13 12 13 15 16 15 15 15 14 15 14 14 14 14 14 14 15 15 15 15 15 15 16 16 16 17 17 18 18 18 18 17 17 17 17 17 17 17 17 17 17 18 18 18 18 18 19 19 19 20 20 20 20 20 20 19 19
33 38 42 41 35 31 28 24 21 21 21 21 21 22 21 20 18 18 17 16 16 15 15 15 14 13 14 13 12 11 12 13 14 15 16 16 17 18 18 18 17 17 16 16 16 16 16 17 17 17 18 18 18 19 19 19 19 18 18 18 18 18 18 18 17 18 17 17 18 18 18 19 19 19 20 20 21 21 21 21 22 22 22 22 21
33 36 40 40 36 30 26 22 22 22 22 22 22 22 21 20 18 18 18 17 16 16 16 15 14 13 12 11 11 12 13 14 15 17 18 19 21 22 22 22 21 20 19 18 18 18 18 18 18 19 19 19 19 20 20 20 20 20 19 19 19 19 19 19 19 19 18 19 19 19 19 20 20 21 21 22 22 22 23 23 23 23 23 24 24
32 32 33 34 32 27 22 21 22 22 22 23 22 22 21 20 19 19 19 18 17 17 16 16 15 14 13 12 11 11 12 13 15 17 19 21 22 23 24 24 24 24 23 22 21 21 21 21 21 21 21 21 21 21 22 22 22 22 22 21 21 21 21 21 21 20 20 20 20 20 21 21 22 23 23 24 24 24 24 25 25 25 24 25 26
32 31 29 28 26 22 21 21 22 22 23 23 23 22 21 20 20 20 20 19 19 19 18 18 17 16 15 14 12 11 12 13 15 16 18 20 21 22 24 25 26 26 26 26 25 24 24 24 24 24 24 24 25 24 24 24 24 24 24 24 24 24 24 24 23 23 23 22 21 21 22 23 24 25 25 26 27 27 27 28 28 28 27 28 29
30 29 26 23 21 20 21 21 21 22 22 22 22 23 22 22 21 21 21 21 20 20 20 19 18 18 17 17 16 15 16 17 18 18 18 19 20 21 23 24 26 27 28 28 27 27 27 26 26 27 27 28 28 28 27 27 26 27 27 26 26 25 25 25 25 25 25 25 25 24 24 25 26 28 28 29 31 32 32 31 32 33 33 33 33
25 26 25 23 22 21 21 21 21 21 20 20 21 22 22 22 22 22 22 23 23 22 22 21 19 19 19 19 20 21 22 22 22 22 22 21 22 22 22 23 25 26 28 29 30 30 29 28 28 29 29 30 30 30 30 29 29 29 29 28 27 27 27 27 27 27 27 28 28 28 29 29 30 31 32 32 33 35 36 36 36 37 37 38 38
23 23 24 24 24 23 22 21 21 21 20 20 20 21 21 21 21 22 23 24 25 26 26 24 23 23 23 23 24 25 26 27 27 27 27 26 25 25 25 25 25 25 26 28 30 31 31 31 31 32 31 32 32 31 31 31 31 31 30 30 30 30 30 29 30 31 31 32 32 32 33 34 35 35 36 36 37 38 39 40 40 40 41 42 43
24 24 24 24 24 24 24 24 23 23 23 23 23 22 22 21 22 22 23 25 27 29 29 29 29 29 29 29 30 30 30 31 32 33 33 32 30 28 27 27 27 27 27 27 28 30 31 32 32 33 33 33 33 33 33 33 34 33 32 32 32 32 31 31 32 33 34 34 35 35 36 36 38 39 39 40 40 40 42 43 44 44 45 46 47
27 26 26 26 26 26 27 27 27 27 27 27 27 27 26 26 26 26 27 28 30 31 31 31 31 32 32 33 33 34 34 35 36 37 38 37 37 34 31 29 28 28 28 28 28 29 30 32 32 32 31 31 31 34 35 36 36 35 34 34 34 33 33 33 33 34 35 36 37 38 38 38 39 40 41 41 41 42 43 44 45 46 46 47 48
29 29 28 28 29 29 29 30 30 30 31 31 31 31 31 31 31 31 32 32 33 34 34 34 34 34 35 35 36 37 38 38 39 40 40 40 40 39 37 34 31 30 30 30 30 29 30 33 33 33 32 31 31 34 36 37 37 37 36 35 35 36 36 36 37 37 38 38 39 40 40 40 42 43 43 43 44 44 44 45 46 47 47 48 48
32 32 31 31 32 32 33 33 33 33 33 33 34 34 34 34 34 34 35 35 36 37 37 37 37 37 37 38 39 40 42 43 43 42 41 41 41 42 42 40 37 34 32 32 32 31 32 34 37 37 36 35 36 37 37 37 37 37 37 37 37 38 38 39 39 39 40 40 40 42 43 43 44 45 45 44 45 46 46 46 47 48 49 49 50
37 37 36 36 36 37 37 37 37 36 36 36 37 37 37 37 38 38 38 38 38 39 39 39 39 40 40 40 40 41 43 44 43 42 42 41 41 41 43 43 42 40 37 35 35 34 35 37 39 39 37 36 37 37 36 35 36 37 38 38 39 39 39 39 39 40 41 42 43 44 44 43 43 44 44 44 44 45 46 46 47 48 48 49 50
41 40 39 39 39 40 40 40 40 40 40 40 40 41 41 41 41 41 41 41 41 41 41 41 41 41 41 40 40 41 42 41 40 40 41 40 41 42 44 44 44 43 42 40 38 37 38 39 39 39 38 39 40 38 37 38 40 40 39 39 39 40 41 41 42 43 44 45 45 44 43 42 42 42 43 43 44 45 46 47 48 49 49 50 51
41 41 42 42 43 44 44 44 44 44 43 43 43 43 43 43 44 44 44 43 43 43 43 43 42 41 40 41 41 42 43 43 44 43 42 42 43 44 45 46 46 45 45 43 41 39 39 39 40 41 41 42 45 45 44 45 44 42 40 40 41 43 43 44 44 45 46 46 45 45 45 45 45 45 46 48 48 49 50 50 51 52 52 52 53
42 44 44 44 44 45 45 45 44 44 43 44 45 46 47 48 48 48 47 46 46 45 45 44 44 44 43 44 45 45 44 44 44 44 44 45 46 46 47 47 47 47 46 45 44 42 41 40 42 43 44 45 48 49 49 47 44 42 42 43 44 45 44 44 45 45 46 46 46 47 47 47 48 49 50 51 52 52 53 53 53 53 54 54 55
45 45 45 46 46 46 47 48 48 49 50 51 52 52 52 51 51 50 50 49 49 48 47 47 47 47 47 48 48 48 48 47 48 47 47 47 47 47 48 48 48 48 48 48 47 44 42 43 45 45 44 44 46 47 46 44 41 41 42 44 45 44 43 44 45 46 46 47 48 48 49 50 51 51 52 52 53 53 53 53 53 54 54 55 55
48 49 50 51 53 53 54 55 56 57 58 58 57 56 55 54 53 52 52 51 52 51 51 50 49 50 50 51 51 52 53 53 52 51 49 47 47 48 49 49 49 49 49 48 47 45 44 45 47 47 46 45 46 47 46 44 43 43 45 46 47 47 45 46 47 48 48 48 49 50 50 51 51 52 52 52 52 53 53 54 54 55 55 56 56
54 55 57 58 59 60 61 61 61 61 61 61 60 59 57 56 55 55 54 54 54 54 55 55 54 54 54 54 54 55 56 55 53 50 48 47 48 49 50 50 49 47 46 45 44 44 45 46 48 49 49 50 50 50 50 49 49 48 48 49 49 49 48 48 49 50 50 50 50 50 50 50 51 52 52 52 52 52 53 54 55 55 56 56 57
60 61 62 63 64 64 64 64 64 63 63 62 62 62 61 60 59 58 57 56 55 56 56 56 57 57 56 56 55 56 56 56 55 53 51 49 48 48 49 50 49 47 47 47 47 47 48 48 49 50 50 51 52 52 53 53 52 51 50 50 50 50 51 50 49 49 50 50 50 49 50 51 52 53 53 53 53 53 53 54 54 55 55 56 57
64 65 65 65 65 65 65 65 65 65 64 64 64 64 64 64 64 63 61 59 58 57 57 57 58 58 57 57 56 56 56 57 57 55 52 49 48 48 48 48 48 48 48 49 49 49 50 51 51 50 50 51 51 52 53 54 53 51 50 49 49 50 50 50 49 49 49 49 49 50 52 54 54 54 54 55 55 55 55 55 55 55 56 56 57
65 65 64 64 64 64 65 65 66 66 66 67 67 67 67 66 66 66 65 64 63 61 61 60 59 57 56 55 55 55 55 55 56 55 53 50 48 47 48 48 48 47 48 48 48 49 50 51 51 50 49 48 48 49 50 50 50 48 48 48 48 49 49 49 49 49 49 49 50 53 55 55 55 56 56 56 56 56 56 56 56 56 57 57 58
65 65 65 65 65 65 66 67 68 69 70 70 70 70 70 69 68 68 68 67 66 65 64 63 61 58 56 53 52 53 54 54 54 55 54 52 50 48 47 48 48 48 48 48 49 50 51 50 48 47 47 47 47 48 47 47 46 45 45 46 47 48 49 49 50 49 49 51 53 56 57 57 57 57 57 57 57 56 57 57 57 58 58 58 58
66 67 67 68 68 69 69 70 71 72 73 73 73 73 72 71 70 69 68 68 67 65 63 61 59 57 55 52 51 52 52 51 52 54 54 54 55 53 49 47 48 49 49 50 50 51 50 48 47 47 47 47 48 47 46 45 45 45 46 47 48 48 48 49 49 50 51 53 56 58 59 59 59 59 58 58 57 57 58 58 58 58 58 58 57
69 69 70 70 71 71 71 72 72 73 73 73 74 74 73 72 71 69 67 67 66 64 60 56 54 54 53 51 51 54 53 52 53 54 54 54 56 56 54 51 49 50 50 50 50 50 48 47 48 49 48 47 48 48 47 47 47 47 47 48 48 48 48 49 50 52 54 56 59 60 61 61 60 60 59 59 58 58 58 58 57 57 56 55 54
69 69 70 70 70 71 71 71 71 71 72 72 72 72 72 72 71 70 68 66 65 64 61 57 53 52 50 47 49 52 53 53 55 56 55 54 54 55 55 53 51 50 49 49 50 49 48 49 50 51 49 48 49 50 49 49 48 48 48 48 49 50 51 51 53 55 56 59 62 64 63 62 62 61 60 59 59 58 57 56 54 53 51 50 50
66 66 67 67 68 69 70 71 71 71 71 72 72 72 72 72 72 71 70 68 66 66 64 58 52 49 48 48 52 53 50 50 52 54 54 53 53 52 53 53 53 53 52 52 51 50 49 50 52 52 52 51 50 50 48 48 49 50 51 52 52 52 53 53 55 57 59 62 65 65 64 63 62 60 59 58 56 54 52 50 49 48 48 47 48
64 64 64 65 65 66 67 67 68 68 67 68 68 68 67 67 67 68 69 68 66 65 64 59 54 53 52 52 54 54 51 49 48 49 50 51 51 51 52 52 53 53 54 55 55 54 53 53 53 54 53 52 51 49 48 49 51 52 53 53 52 52 53 54 57 60 63 65 65 64 62 61 60 58 55 52 49 47 46 45 45 45 45 46 46
59 58 58 58 58 59 59 60 60 60 60 60 61 62 62 62 62 63 64 64 62 61 60 59 58 58 57 53 52 52 52 49 46 45 47 48 47 46 46 47 49 51 53 55 55 56 56 55 54 54 54 52 51 51 51 51 51 50 49 50 51 52 54 57 61 64 65 64 62 60 58 56 53 50 46 43 42 41 41 42 43 43 44 45 45
53 53 53 54 54 55 56 56 56 57 57 57 57 58 59 59 60 60 61 62 61 59 59 59 60 59 56 53 54 54 53 49 47 46 47 46 44 43 44 46 49 50 50 51 50 50 51 51 52 53 53 51 50 50 50 49 48 48 49 51 52 54 58 62 64 64 62 59 57 54 51 47 43 40 38 37 37 38 39 40 41 41 42 43 44
51 51 51 51 51 51 51 50 50 51 51 51 52 52 52 53 54 55 56 57 58 58 58 59 60 59 57 57 58 58 55 51 50 50 50 49 47 46 46 47 47 46 44 44 45 45 45 45 46 47 48 48 48 47 47 47 48 49 50 52 54 58 61 63 61 58 54 51 48 45 41 38 35 34 34 35 35 35 36 37 39 40 42 44 46
46 45 45 44 43 42 42 41 41 41 42 42 42 43 44 45 46 47 48 50 51 52 54 56 58 60 61 62 62 60 56 53 50 48 48 49 48 45 43 42 42 42 40 40 40 39 40 41 42 43 45 46 46 45 44 45 46 48 51 55 57 59 58 55 52 48 45 42 39 36 33 32 32 32 32 31 31 32 34 37 39 41 43 45 45
38 37 37 36 36 35 35 36 36 37 37 37 38 39 39 39 40 42 44 45 45 45 46 49 51 54 58 62 64 61 58 55 51 48 48 49 47 43 39 38 39 39 39 38 37 36 37 38 38 39 40 41 42 42 43 44 47 51 54 55 53 49 47 45 42 40 37 34 32 30 29 30 30 29 27 27 29 31 34 37 39 42 44 42 37
32 31 31 31 32 32 34 35 37 39 40 40 41 41 41 41 40 40 41 43 44 43 42 42 44 46 50 56 61 61 59 57 54 53 53 55 53 47 40 35 34 35 36 37 38 38 38 38 38 38 39 40 41 43 44 47 52 54 52 47 44 41 40 38 36 34 31 29 28 28 28 28 26 24 23 25 28 31 34 36 39 41 39 34 28
27 27 28 29 31 33 36 39 41 43 44 45 45 46 46 45 44 43 42 42 42 42 41 40 39 40 42 46 53 58 59 59 57 57 59 60 59 56 49 41 37 38 38 37 38 40 40 41 42 42 43 45 46 48 50 52 53 50 45 40 39 38 36 33 31 29 28 26 26 27 26 24 21 20 22 25 27 29 32 36 38 37 32 26 22
24 26 28 30 33 36 38 40 41 43 44 47 48 48 48 48 47 45 43 42 41 41 41 39 37 37 38 39 43 49 55 57 57 58 58 58 58 58 53 46 44 46 46 43 43 44 44 44 45 46 47 49 52 53 52 49 46 42 39 38 37 35 32 30 28 26 26 26 26 25 22 19 18 20 22 24 26 28 30 34 35 32 26 21 19
23 25 28 30 32 34 36 38 40 43 45 47 47 47 47 46 45 44 43 42 41 40 38 35 33 34 35 35 36 41 48 53 54 54 54 56 56 54 50 46 47 51 51 48 47 49 49 50 51 52 52 52 52 50 44 40 38 38 37 35 34 32 29 27 26 25 25 25 23 21 18 17 17 19 21 22 24 26 28 31 32 29 24 20 18
22 23 26 28 30 33 35 38 42 44 44 41 39 37 35 34 35 35 36 36 35 34 33 30 29 32 34 34 34 36 42 48 51 49 46 46 46 46 48 49 51 52 52 49 47 47 47 48 48 47 46 45 42 37 33 32 35 36 35 33 31 29 27 26 25 25 24 23 20 17 16 16 17 18 20 21 22 24 25 27 28 27 22 18 17
21 23 25 27 30 33 36 40 43 41 35 29 25 23 22 22 22 24 26 28 28 27 26 26 28 32 35 35 33 34 37 42 47 46 42 37 35 35 39 44 47 49 48 46 45 45 43 42 40 39 39 37 33 28 27 29 32 34 33 31 30 28 26 26 25 24 22 20 18 16 16 16 17 18 19 19 21 22 23 24 26 26 23 18 16
21 23 25 27 30 32 36 41 39 32 23 18 17 17 17 17 17 19 21 22 21 21 23 26 30 33 35 35 34 33 34 38 43 45 42 39 36 36 37 39 42 45 44 43 43 43 43 41 40 38 37 35 33 30 28 30 31 32 32 30 29 27 26 25 24 22 20 18 17 16 16 16 17 18 18 18 19 21 22 22 23 24 23 19 16
20 22 24 26 28 31 36 38 33 23 16 13 13 13 12 11 14 17 18 17 18 22 27 29 30 31 33 33 33 31 31 34 40 44 43 39 37 37 38 39 41 44 45 43 43 42 42 42 41 39 37 36 37 37 35 34 34 34 32 30 28 27 25 24 22 20 19 18 18 17 16 16 17 17 17 17 18 20 21 21 22 23 24 23 18
19 21 23 24 26 29 34 35 27 18 12 10 8 8 8 8 11 14 15 17 19 23 26 27 28 29 29 29 29 27 26 31 38 42 43 42 38 35 34 35 37 41 43 43 42 41 40 40 39 38 36 37 39 41 40 38 38 35 32 29 28 26 23 21 20 19 19 19 18 17 16 16 17 16 16 16 17 19 20 20 21 22 23 24 22
18 20 21 22 23 26 31 31 25 16 10 6 4 4 6 9 12 13 14 17 19 21 22 23 24 24 24 24 24 24 24 29 34 35 37 40 39 34 31 32 34 38 40 41 40 39 38 37 37 37 37 38 40 41 42 42 40 35 31 29 26 23 21 20 20 20 20 20 19 17 17 17 16 15 15 15 16 18 19 19 20 21 22 23 24
17 18 18 19 21 23 27 28 24 15 9 4 0 4 7 10 12 12 12 14 14 14 16 17 17 15 15 17 21 23 25 30 33 29 25 26 29 28 25 26 29 32 35 37 38 37 37 38 40 40 41 41 42 43 44 43 39 33 30 27 23 21 20 20 21 21 21 21 19 18 17 17 16 15 14 15 16 17 18 19 19 20 21 22 24
16 16 17 17 19 20 22 25 23 17 9 4 1 4 7 10 11 9 9 10 10 9 11 12 13 12 12 14 17 20 24 30 34 33 26 22 23 23 22 22 23 25 28 32 35 36 38 41 43 44 45 46 46 45 43 39 34 30 26 23 21 20 21 21 22 22 22 21 20 19 18 17 16 14 14 15 16 16 17 18 19 20 20 20 22
16 16 16 16 17 18 19 21 23 19 13 5 0 4 7 9 10 9 9 10 11 10 11 12 12 13 14 13 14 17 21 27 34 36 31 26 25 25 25 24 22 22 24 27 30 34 38 41 44 46 47 46 43 40 36 32 28 25 22 21 21 21 22 22 23 23 22 21 20 19 19 18 15 14 14 15 15 16 16 18 19 19 19 19 20
18 18 17 16 16 16 16 17 20 20 17 12 5 1 6 8 10 10 10 11 11 12 13 14 15 16 16 16 16 17 20 25 32 35 33 29 27 26 27 28 28 26 25 25 27 30 34 37 39 41 40 37 34 31 28 26 23 21 20 21 22 22 22 23 23 23 23 22 20 20 19 18 16 14 14 15 15 15 16 17 18 19 19 19 19
18 19 18 17 15 15 15 15 15 17 17 16 13 8 2 4 8 9 9 10 10 11 12 14 15 15 16 17 18 18 20 24 29 31 29 26 26 26 27 29 30 29 28 28 29 31 33 34 34 32 30 28 26 24 23 21 20 21 21 22 22 22 22 23 23 23 23 22 21 20 19 18 16 15 15 15 15 15 15 16 17 18 18 18 18
15 17 19 18 17 15 14 13 12 13 13 13 14 14 12 9 6 4 3 3 3 5 7 10 12 12 13 14 15 17 20 24 28 28 25 22 22 24 25 27 28 29 29 29 31 32 32 30 27 25 23 22 21 20 20 20 20 21 21 21 22 22 22 23 23 23 23 22 21 20 19 18 17 16 16 16 16 15 15 16 16 17 17 17 17
11 13 15 17 18 17 15 12 10 9 9 9 9 9 10 10 9 8 6 6 5 4 3 3 5 6 8 10 11 14 18 22 25 25 23 22 21 22 23 24 25 25 26 27 28 27 26 23 21 20 20 19 19 19 20 20 20 21 21 21 21 22 22 22 22 23 22 21 20 19 19 18 17 17 17 16 16 15 15 15 16 16 16 16 16
Wind_Direction
258 255 253 250 250 250 250 258 264 263 263 265 267 269 270 273 278 283 286 288 290 292 293 293 291 287 283 283 286 285 278 269 261 255 252 251 255 259 264 270 277 283 288 291 292 292 289 286 282 279 275 272 269 265 261 258 256 255 255 256 257 259 262 265 266 267 268 270 271 272 273 274 275 276 277 278 279 279 279 280 280 281 281 282 282
260 252 248 252 258 255 256 263 264 260 260 262 263 263 264 267 271 274 277 279 280 284 288 291 293 293 289 284 284 287 281 271 265 262 260 260 262 264 265 267 271 275 279 282 285 286 285 282 279 275 271 268 265 262 260 258 256 255 256 257 259 261 262 264 265 267 269 271 272 274 275 276 276 277 278 279 279 280 280 280 280 280 280 280 281
263 256 252 255 260 258 256 257 253 252 255 256 257 258 260 262 264 266 269 269 270 275 280 286 290 291 288 285 282 281 278 274 271 269 269 270 271 271 271 271 272 273 275 276 278 281 281 280 279 277 273 269 265 262 260 258 256 257 258 259 261 262 263 264 266 267 269 272 273 275 277 277 278 278 278 279 279 279 278 278 278 279 279 280 280
266 264 259 258 258 255 251 246 243 246 249 251 253 254 256 257 258 258 259 260 263 267 272 277 281 281 280 278 276 276 277 277 276 275 276 277 278 278 277 277 276 276 275 275 275 276 276 275 273 272 270 268 265 263 260 259 258 258 259 260 262 263 264 265 267 268 269 271 272 272 273 274 275 276 277 277 277 278 278 277 276 276 276 277 278
269 268 264 261 259 253 245 239 240 243 245 249 253 254 254 253 252 253 254 256 258 261 266 270 270 269 267 266 267 273 280 283 283 282 281 281 281 281 281 280 279 278 277 275 273 273 274 273 272 270 268 265 263 261 260 259 258 258 258 260 262 264 266 267 269 271 271 271 272 272 271 270 272 273 275 277 277 277 276 276 276 275 274 274 275
268 267 263 261 258 250 243 240 242 246 249 252 254 256 255 252 251 251 252 256 260 264 266 266 264 260 256 253 256 265 278 287 290 290 289 286 284 283 282 282 281 279 277 274 272 272 272 273 273 272 271 269 266 264 263 262 261 260 261 262 263 265 268 269 271 272 273 274 274 275 276 276 277 278 278 278 279 278 277 276 277 277 276 274 274
266 264 260 256 251 245 244 245 248 251 253 255 255 256 256 254 251 251 254 258 261 264 265 265 263 257 251 249 252 262 275 283 287 290 290 288 286 285 283 282 281 279 276 273 271 269 269 271 273 273 273 272 271 269 268 265 263 263 263 265 266 268 269 271 271 272 273 276 277 279 281 282 283 284 284 282 281 281 280 279 279 280 279 278 276
267 263 259 253 248 246 247 250 251 251 253 255 256 256 256 256 254 253 256 260 261 262 264 264 262 258 255 254 258 265 274 280 284 287 287 285 283 283 282 283 284 283 278 274 271 268 268 269 270 272 272 272 272 271 269 266 264 263 264 264 266 268 269 270 272 273 274 276 279 281 282 282 282 283 284 284 283 282 282 281 280 280 281 281 280
266 264 260 254 250 248 249 250 250 249 251 255 259 260 258 257 258 258 259 261 262 263 263 263 263 263 263 263 265 268 272 277 281 284 284 283 281 280 280 281 285 287 284 279 273 268 267 268 268 269 270 270 270 268 267 266 266 265 264 264 265 267 269 270 272 274 275 277 279 280 281 282 282 283 284 284 283 282 282 282 282 282 282 283 283
261 261 259 257 255 253 252 252 251 251 251 254 258 262 261 260 261 261 261 261 263 264 264 265 266 267 269 270 270 272 274 276 278 280 281 282 281 280 279 278 280 283 284 283 278 271 267 267 267 267 268 268 268 266 265 265 266 266 266 265 266 267 269 271 273 274 276 278 280 281 282 282 283 284 284 284 283 283 282 282 282 282 282 283 283
257 257 257 258 258 257 257 256 256 256 257 258 259 262 264 264 264 263 263 263 264 265 266 267 268 269 271 271 272 274 274 275 276 276 278 280 281 281 279 277 275 275 278 281 280 276 270 265 264 266 267 267 267 265 263 262 263 264 265 265 267 268 269 271 273 274 277 279 281 282 282 282 283 283 283 283 283 282 282 282 282 282 283 283 283
255 255 255 255 256 257 257 258 258 259 260 262 263 264 265 266 266 265 266 267 268 269 270 271 270 270 271 272 273 274 273 273 274 274 276 277 279 280 280 279 275 272 273 274 276 277 272 264 263 265 266 268 269 266 264 261 260 261 263 264 267 269 270 272 274 276 278 280 281 282 283 283 283 284 283 283 282 281 281 281 282 283 283 284 284
255 255 254 254 255 256 257 258 258 259 259 260 262 263 264 265 266 266 267 268 270 271 272 272 272 272 272 273 273 274 274 274 274 274 274 275 277 278 279 280 279 275 272 269 268 271 271 265 261 260 263 268 268 264 261 260 259 260 262 265 267 269 271 274 276 279 280 281 282 283 284 285 285 285 284 283 283 283 283 283 282 282 283 283 283
256 256 255 255 256 257 258 259 259 259 260 259 260 260 261 262 263 264 265 266 268 269 271 272 272 272 272 272 273 275 276 275 273 272 272 272 274 276 277 278 279 277 274 269 265 265 268 267 262 258 262 267 265 260 259 261 263 264 266 267 269 269 270 273 275 278 279 281 282 282 282 282 283 283 284 284 284 285 285 285 284 284 283 283 284
257 256 257 258 259 260 261 262 262 262 261 261 260 260 260 261 262 263 264 264 265 267 269 270 271 271 270 270 271 273 274 273 271 271 271 271 274 275 275 275 275 275 274 271 267 264 265 267 264 258 259 263 262 261 267 273 273 272 270 270 270 272 274 276 278 279 280 280 281 281 280 280 282 283 285 286 286 287 287 287 287 286 286 286 286
256 257 260 262 263 264 264 265 265 265 264 263 263 263 263 264 265 265 266 266 266 266 267 267 268 270 271 271 270 271 274 273 270 268 269 272 274 274 273 273 273 273 272 270 268 265 263 265 264 258 256 259 262 266 274 277 275 271 270 271 273 276 279 280 280 280 280 279 279 279 279 280 282 285 287 289 290 290 290 289 289 288 287 287 286
255 259 262 264 264 265 266 266 266 265 265 266 267 268 269 270 271 270 269 269 268 268 267 266 266 268 270 270 269 272 276 274 270 268 270 273 275 274 272 272 271 271 270 267 266 264 262 262 263 259 255 257 262 268 273 273 270 268 271 274 276 278 279 279 278 278 278 279 279 279 280 281 283 286 288 290 291 291 290 290 289 288 288 287 287
257 260 262 264 266 267 268 268 268 268 269 270 271 271 272 272 272 272 271 271 270 269 268 267 267 267 267 268 269 271 273 272 271 273 274 274 273 273 272 271 270 270 269 268 266 265 261 259 261 260 256 256 261 266 268 267 268 271 275 277 278 279 279 279 279 279 280 280 280 281 281 283 285 287 289 291 291 291 290 290 289 289 289 289 288
259 261 264 267 269 270 270 270 270 271 271 272 272 271 271 271 271 272 272 271 271 271 269 268 268 268 268 268 269 270 271 271 271 272 273 271 271 271 270 269 269 269 269 269 267 264 260 257 258 260 260 261 264 266 267 269 273 276 278 279 280 281 281 280 281 282 282 281 281 282 284 285 287 289 291 292 292 292 292 292 291 291 291 291 290
261 264 266 269 270 271 271 271 271 272 272 272 272 272 271 271 271 271 271 271 272 272 271 271 270 269 269 269 269 270 271 271 270 269 269 268 268 269 269 268 267 266 266 265 263 261 259 259 260 261 263 265 267 268 270 273 276 278 279 280 280 281 280 280 281 281 281 281 282 283 285 287 289 291 291 291 291 291 291 292 292 292 292 291 291
264 266 268 269 270 271 271 271 272 272 273 273 273 273 273 273 272 272 272 272 272 272 272 272 272 271 270 270 269 269 269 268 268 268 269 268 266 266 266 266 264 262 260 260 261 261 262 263 263 263 264 265 267 268 271 274 277 279 279 279 279 280 280 280 280 279 279 280 282 283 286 289 291 291 291 291 291 290 290 290 290 290 290 289 289
267 268 269 270 271 272 272 272 273 273 273 274 274 274 275 275 275 275 275 274 274 274 274 273 272 272 272 271 270 269 268 267 266 266 266 265 264 263 262 262 262 260 259 259 261 262 263 263 264 264 264 264 266 268 270 273 275 276 277 277 278 279 280 280 280 279 280 281 282 285 290 293 293 293 292 292 292 292 291 291 290 290 289 289 288
269 270 270 271 271 272 273 273 274 274 274 275 275 275 275 275 276 276 276 276 275 275 275 274 273 272 272 272 272 271 268 266 265 264 263 262 261 260 259 259 259 260 259 260 261 262 262 263 263 264 264 265 267 269 270 271 272 273 274 275 277 278 279 280 280 280 280 281 284 289 292 294 293 293 292 292 292 292 292 291 291 290 289 288 288
271 272 272 272 272 273 273 274 274 274 274 274 274 273 273 274 274 274 274 274 274 273 274 274 273 272 271 271 270 269 268 267 266 263 260 258 257 257 257 258 258 258 259 260 261 261 261 261 261 263 266 268 270 271 271 271 271 271 272 274 277 278 279 279 279 279 280 282 287 291 293 293 293 293 292 292 292 291 291 290 290 289 288 288 288
271 271 271 271 272 272 272 272 272 272 272 272 272 271 271 272 272 272 272 272 272 272 273 272 271 270 269 267 264 263 265 266 264 262 259 257 256 257 258 259 260 259 259 260 261 260 259 260 261 263 267 270 271 271 270 269 270 271 273 276 277 278 278 279 279 279 281 284 288 292 293 293 293 292 292 291 291 290 289 288 288 288 288 288 288
269 269 269 269 269 269 269 269 270 270 270 270 270 271 271 271 270 270 270 270 270 271 270 269 269 268 267 263 259 258 259 258 258 259 259 257 256 256 257 258 258 258 257 258 258 258 259 260 261 263 265 267 269 269 268 268 270 273 275 276 276 276 277 279 279 281 283 286 290 293 294 293 292 292 291 290 289 287 287 287 287 288 289 289 289
269 269 269 269 269 268 268 268 268 268 268 269 269 270 270 270 270 269 269 268 268 268 266 266 266 265 262 259 257 256 255 254 255 257 257 256 256 256 256 256 255 255 255 254 254 255 257 258 259 260 263 266 267 267 268 269 271 273 275 276 276 276 277 279 281 282 285 287 290 292 292 291 291 290 289 287 287 287 287 288 289 289 290 290 290
269 269 269 269 269 269 269 269 269 269 269 269 269 269 269 269 269 269 268 266 265 264 264 263 261 260 258 256 256 257 255 253 254 255 255 255 256 256 256 255 254 253 253 253 253 253 255 258 259 259 262 265 266 267 268 270 272 273 272 272 272 273 275 279 281 283 286 288 290 290 290 289 288 287 287 287 288 289 289 289 290 290 290 291 291
270 270 270 270 270 270 270 270 270 269 269 268 268 267 267 266 266 266 265 264 262 262 262 259 253 252 254 255 256 256 253 250 252 255 256 255 254 255 255 255 255 255 255 255 255 255 257 259 259 259 260 263 265 267 269 270 270 269 268 267 269 272 276 279 282 284 286 288 288 288 287 287 286 287 288 289 290 290 290 290 290 290 291 292 293
273 274 274 273 273 273 272 272 271 270 269 268 267 267 266 265 264 263 262 262 260 259 258 256 251 249 250 250 251 250 249 247 249 252 254 254 253 254 255 256 257 256 256 255 255 256 257 258 257 256 258 262 265 267 267 266 265 265 267 270 273 276 278 281 284 286 287 288 287 286 286 286 287 289 290 289 289 289 290 291 291 292 293 294 296
278 278 277 277 277 276 276 276 275 274 273 271 270 269 268 267 265 264 263 262 260 257 255 253 251 249 247 246 246 247 247 246 244 244 246 249 251 253 255 257 257 256 254 252 252 253 254 254 254 255 257 260 263 263 261 261 263 266 270 273 276 279 282 284 286 287 287 286 286 287 288 289 289 289 288 288 289 290 292 293 294 295 297 298 298
280 279 279 279 279 278 278 278 277 277 276 275 273 272 271 269 268 266 265 263 261 258 255 252 250 248 244 242 243 245 247 245 242 241 243 247 250 253 254 254 252 251 250 251 252 253 253 254 254 254 255 257 258 258 259 262 267 269 272 275 279 283 285 286 286 286 286 286 287 289 290 289 287 287 288 290 291 292 294 296 297 299 299 300 300
280 280 280 280 279 278 277 276 276 275 275 275 274 273 272 271 269 267 265 263 262 259 256 253 250 248 245 243 243 244 244 241 240 240 243 246 248 250 249 248 248 249 251 253 253 253 252 252 252 253 255 256 258 260 263 267 270 273 277 281 284 285 284 284 284 285 287 288 289 288 286 286 286 288 290 291 293 295 297 298 300 301 301 302 301
280 280 280 278 277 276 275 274 275 275 274 274 274 274 273 272 271 269 266 264 262 260 258 254 251 248 246 244 243 242 241 238 235 234 237 241 243 243 244 246 247 248 250 250 249 249 249 250 253 256 257 259 261 263 267 270 274 280 284 285 285 283 282 282 284 286 287 287 287 285 285 287 288 289 290 292 295 298 300 301 303 304 304 303 300
278 277 277 276 276 277 278 279 280 280 279 277 275 274 273 271 270 269 267 264 261 260 259 257 254 250 247 244 242 241 239 237 233 230 231 235 238 239 239 238 239 240 241 243 244 245 247 250 252 255 258 261 264 267 270 276 281 284 284 282 282 282 283 284 285 285 285 284 283 284 286 288 287 287 290 294 298 301 303 305 307 307 306 303 297
275 276 277 278 280 282 284 285 284 283 281 279 276 273 271 269 267 266 264 262 259 257 256 257 256 253 250 246 243 240 238 235 233 231 230 232 237 240 241 240 238 238 237 239 243 247 251 253 256 258 261 264 268 272 276 280 281 280 278 278 282 284 284 284 283 283 282 281 282 284 285 284 283 287 293 298 302 305 307 310 312 311 306 299 293
279 281 282 284 286 287 288 288 287 286 284 281 278 274 271 268 265 262 260 258 255 252 251 254 255 254 252 249 246 242 237 234 233 233 232 233 236 240 244 246 246 245 245 248 253 257 260 262 264 266 267 269 272 274 276 276 275 273 274 278 281 282 282 281 281 279 279 280 282 282 280 277 281 290 297 301 305 308 312 316 318 315 306 296 291
284 286 287 289 290 291 292 292 292 292 290 285 280 275 271 266 262 256 253 252 251 248 247 248 250 251 251 251 249 245 238 232 230 230 232 234 236 239 243 247 249 250 252 257 261 263 265 267 268 268 268 269 270 270 268 267 268 271 274 277 279 278 278 278 277 276 278 280 279 274 270 273 283 293 299 303 307 311 315 320 323 319 308 296 292
289 291 293 295 297 299 300 301 302 301 297 289 281 275 270 264 257 251 247 245 245 244 243 240 239 244 249 251 250 248 241 232 227 226 229 232 236 242 246 247 247 250 253 256 259 261 262 264 264 264 263 263 262 259 260 264 269 272 274 276 276 276 275 274 274 275 276 274 268 262 263 274 285 293 299 304 309 312 315 322 328 328 317 301 294
295 298 302 305 307 308 309 311 311 308 300 290 281 276 271 263 253 244 239 237 236 236 235 231 232 239 247 249 249 248 242 232 224 220 219 221 227 236 240 240 241 244 247 248 250 252 254 256 257 257 258 256 251 251 262 272 274 274 274 274 274 273 272 271 272 273 270 263 255 253 262 275 285 292 299 307 312 313 315 323 333 337 331 315 297
302 306 311 314 315 316 318 319 319 313 302 290 282 276 270 260 244 231 226 225 222 219 220 224 231 239 246 249 250 249 244 231 219 212 210 213 219 223 225 227 231 236 239 241 243 245 248 251 252 254 256 252 245 250 269 282 282 278 275 272 271 270 269 268 269 266 258 249 246 251 262 274 282 290 299 308 313 315 317 324 332 340 342 334 313
308 312 316 320 322 324 327 329 327 321 309 296 285 273 262 244 226 218 212 206 204 208 215 223 231 239 245 247 247 246 240 227 215 209 209 212 215 216 217 219 225 231 235 239 241 243 247 250 250 252 256 254 248 252 267 282 285 280 273 269 268 267 265 265 262 254 244 240 243 251 261 271 280 288 299 309 315 318 320 325 331 340 348 347 335
314 316 320 324 328 331 335 338 339 332 319 306 290 272 250 217 203 200 192 187 197 211 220 226 232 239 244 244 242 239 231 218 211 211 213 212 211 214 219 224 228 232 235 238 241 243 245 246 246 250 255 255 253 255 265 276 282 279 270 265 264 263 260 257 251 242 237 239 243 250 260 269 278 288 299 309 316 319 322 327 332 340 347 351 347
318 318 322 328 334 338 344 349 350 344 333 326 303 257 222 189 177 179 184 190 204 218 228 231 234 239 243 241 236 231 219 207 207 214 220 220 219 223 228 231 232 233 235 237 240 242 242 243 245 250 256 258 258 260 266 274 278 274 265 260 260 256 251 246 241 237 237 240 243 249 259 267 277 288 300 309 315 319 324 329 334 339 344 350 352
324 322 327 334 340 345 352 359 2 358 351 356 103 191 190 179 174 181 195 203 211 224 229 227 225 230 236 234 229 225 215 205 203 206 214 220 225 229 232 236 239 240 239 239 239 241 243 245 248 254 260 263 264 265 269 273 272 265 257 254 251 245 240 238 237 237 238 240 243 249 257 265 275 287 300 309 314 319 325 331 335 338 342 347 351
335 332 334 340 346 351 359 7 12 11 7 6 151 188 191 184 175 179 196 205 208 219 224 218 215 224 233 233 229 226 220 211 204 201 200 208 218 225 233 241 247 248 247 245 244 244 246 249 252 258 263 266 267 268 270 268 261 253 248 245 239 235 235 237 238 238 238 240 243 249 255 264 274 286 299 308 314 319 326 332 335 338 340 344 349
354 349 345 346 351 357 4 12 18 22 23 22 253 210 203 189 181 187 206 214 216 223 230 229 229 232 235 237 237 233 225 216 209 206 208 213 217 221 229 237 242 247 251 252 250 251 252 255 258 262 265 266 266 264 261 254 246 240 237 233 231 232 236 238 238 238 239 240 244 249 255 263 273 284 296 305 312 319 327 332 334 336 339 341 345
4 2 357 353 354 0 8 15 21 26 31 36 39 212 211 204 203 211 222 227 227 230 233 236 240 242 243 246 247 241 229 217 210 208 212 217 218 218 224 232 238 245 252 255 256 257 258 259 260 262 262 259 255 249 242 236 231 228 226 226 230 234 237 239 239 239 240 242 245 250 256 264 272 282 293 302 310 318 326 330 332 334 337 339 343
3 6 7 4 1 2 8 16 22 27 33 38 44 52 90 197 211 220 227 231 232 231 231 233 235 238 242 245 244 238 228 217 209 207 212 219 223 227 230 234 237 243 249 254 257 258 258 258 257 255 249 242 235 229 225 222 220 220 223 228 233 237 239 240 241 240 241 244 246 250 257 265 273 281 290 299 307 315 322 327 329 332 335 337 340
358 4 9 11 10 8 9 14 21 28 32 38 47 55 64 77 100 125 145 170 192 211 223 227 227 230 236 237 232 225 219 212 207 207 213 221 229 235 237 236 237 242 247 251 254 255 255 252 247 240 231 225 220 217 215 215 217 221 227 232 236 239 241 242 242 243 244 245 247 251 258 267 273 280 288 295 302 309 318 323 326 329 333 334 337
354 0 6 11 14 14 13 13 18 27 34 39 47 57 66 73 80 86 94 108 122 129 141 171 192 210 224 222 211 204 205 205 204 205 209 213 219 224 228 230 233 239 243 246 247 247 245 239 230 224 220 217 213 212 213 216 221 227 232 236 239 241 242 242 243 245 246 247 250 254 260 267 273 278 283 290 297 305 314 319 322 326 329 332 334
Height
5746 5747 5748 5748 5750 5751 5749 5748 5748 5749 5750 5752 5753 5754 5754 5754 5754 5754 5754 5753 5753 5753 5753 5753 5753 5753 5753 5753 5753 5753 5753 5753 5754 5754 5754 5754 5754 5754 5755 5755 5755 5756 5756 5756 5757 5757 5757 5758 5758 5759 5759 5759 5760 5760 5760 5760 5760 5760 5760 5760 5760 5760 5760 5760 5760 5760 5760 5760 5760 5760 5760 5760 5760 5760 5760 5760 5760 5759 5759 5759 5759 5759 5759 5759 5758
5743 5744 5745 5746 5747 5747 5746 5745 5746 5747 5748 5750 5751 5752 5752 5753 5752 5752 5752 5752 5751 5751 5751 5751 5751 5751 5751 5751 5751 5751 5751 5752 5752 5753 5753 5753 5753 5753 5753 5754 5754 5754 5754 5755 5755 5755 5756 5756 5756 5757 5757 5757 5758 5758 5758 5758 5758 5758 5758 5758 5758 5758 5758 5758 5758 5758 5758 5758 5758 5758 5758 5758 5758 5758 5758 5758 5758 5757 5757 5757 5757 5757 5757 5756 5756
5739 5741 5741 5742 5743 5743 5743 5743 5744 5745 5746 5747 5749 5749 5750 5750 5750 5750 5750 5750 5750 5750 5750 5749 5750 5750 5750 5749 5749 5750 5750 5750 5751 5751 5752 5752 5752 5752 5752 5752 5752 5752 5753 5753 5753 5754 5754 5754 5754 5755 5755 5755 5755 5755 5755 5756 5756 5756 5756 5756 5756 5756 5756 5755 5755 5755 5756 5756 5756 5756 5756 5756 5756 5756 5756 5756 5756 5756 5756 5755 5755 5755 5754 5754 5754
5736 5737 5737 5738 5738 5738 5739 5740 5741 5743 5744 5745 5746 5747 5747 5748 5748 5748 5748 5748 5748 5748 5748 5748 5748 5748 5748 5748 5748 5748 5749 5749 5749 5750 5750 5750 5750 5750 5750 5750 5750 5751 5751 5751 5751 5751 5752 5752 5752 5752 5753 5753 5753 5753 5753 5754 5754 5754 5754 5754 5754 5753 5753 5753 5753 5753 5753 5753 5753 5753 5753 5753 5753 5753 5753 5753 5753 5753 5753 5753 5752 5752 5752 5751 5751
5731 5733 5734 5734 5734 5735 5736 5738 5739 5740 5742 5742 5743 5744 5744 5745 5745 5745 5746 5746 5745 5745 5745 5746 5746 5746 5746 5746 5746 5747 5747 5747 5748 5748 5748 5748 5748 5748 5748 5748 5748 5748 5749 5749 5749 5749 5749 5749 5750 5750 5750 5750 5750 5751 5751 5751 5751 5751 5751 5751 5751 5751 5751 5751 5751 5751 5751 5751 5751 5751 5751 5750 5750 5750 5750 5750 5750 5750 5750 5750 5749 5749 5749 5749 5748
5728 5729 5730 5731 5732 5733 5734 5736 5737 5738 5739 5740 5740 5741 5741 5742 5742 5742 5743 5743 5743 5743 5743 5743 5743 5743 5744 5744 5744 5745 5745 5745 5746 5746 5746 5746 5746 5746 5746 5746 5746 5746 5746 5746 5746 5746 5747 5747 5747 5747 5747 5747 5747 5748 5748 5748 5748 5749 5748 5748 5748 5748 5748 5748 5748 5748 5748 5748 5748 5748 5748 5747 5747 5746 5747 5747 5746 5746 5747 5746 5746 5746 5746 5746 5745
5725 5726 5727 5728 5730 5731 5732 5733 5734 5735 5736 5737 5737 5738 5738 5739 5739 5739 5740 5740 5741 5741 5741 5741 5741 5741 5741 5742 5742 5742 5743 5743 5743 5743 5744 5744 5744 5744 5744 5743 5743 5743 5743 5744 5744 5744 5744 5744 5744 5744 5744 5744 5744 5744 5745 5745 5745 5745 5745 5745 5745 5745 5745 5744 5745 5744 5744 5744 5744 5744 5744 5744 5743 5743 5743 5744 5743 5742 5743 5743 5742 5741 5742 5742 5742
5723 5724 5725 5726 5727 5728 5730 5730 5731 5732 5733 5734 5734 5735 5735 5736 5736 5737 5737 5737 5738 5738 5739 5739 5739 5739 5739 5739 5739 5740 5740 5740 5741 5741 5741 5741 5741 5741 5741 5741 5740 5740 5741 5741 5741 5741 5741 5741 5741 5741 5741 5741 5741 5741 5741 5741 5741 5741 5742 5742 5741 5741 5741 5741 5741 5740 5740 5740 5740 5740 5740 5740 5740 5740 5739 5740 5739 5738 5738 5738 5738 5737 5737 5737 5737
5721 5722 5723 5724 5725 5726 5727 5728 5729 5729 5730 5731 5732 5732 5732 5732 5733 5734 5734 5735 5735 5736 5736 5736 5736 5736 5736 5736 5736 5737 5737 5737 5737 5738 5738 5738 5738 5739 5739 5738 5738 5738 5738 5738 5738 5738 5738 5738 5738 5737 5737 5737 5738 5738 5738 5738 5738 5739 5739 5738 5738 5738 5738 5738 5737 5737 5737 5737 5737 5737 5736 5736 5735 5735 5735 5735 5735 5734 5733 5733 5733 5732 5732 5731 5731
5719 5720 5721 5722 5722 5723 5724 5725 5726 5727 5728 5729 5729 5729 5728 5729 5729 5731 5731 5732 5732 5733 5733 5733 5733 5733 5733 5733 5733 5733 5733 5734 5734 5734 5734 5734 5735 5735 5735 5735 5735 5735 5735 5735 5735 5735 5735 5735 5734 5733 5733 5733 5734 5734 5734 5734 5735 5735 5735 5735 5735 5734 5734 5734 5734 5733 5733 5733 5733 5733 5732 5732 5731 5730 5730 5730 5730 5729 5728 5728 5727 5727 5726 5726 5725
5716 5717 5718 5719 5719 5720 5721 5722 5723 5723 5724 5725 5725 5726 5726 5726 5727 5728 5728 5729 5729 5729 5729 5729 5729 5729 5729 5729 5729 5729 5729 5729 5729 5729 5729 5730 5730 5730 5731 5731 5731 5732 5732 5732 5732 5732 5731 5730 5729 5729 5729 5729 5729 5729 5729 5730 5730 5730 5731 5731 5731 5731 5731 5730 5730 5730 5729 5729 5728 5728 5728 5728 5727 5726 5726 5725 5724 5724 5723 5722 5721 5721 5720 5720 5719
5713 5714 5714 5715 5716 5716 5717 5718 5718 5719 5720 5720 5721 5722 5722 5723 5724 5725 5725 5726 5725 5725 5725 5725 5725 5725 5725 5725 5725 5725 5725 5725 5725 5725 5725 5725 5725 5725 5726 5726 5727 5728 5728 5729 5729 5730 5729 5727 5725 5725 5725 5725 5725 5724 5724 5725 5725 5726 5726 5727 5727 5727 5726 5726 5726 5725 5725 5725 5724 5723 5723 5723 5722 5722 5721 5720 5719 5719 5718 5717 5716 5715 5715 5714 5713
5709 5709 5710 5711 5712 5712 5713 5713 5714 5715 5716 5717 5717 5718 5718 5719 5720 5720 5722 5722 5722 5721 5721 5721 5720 5721 5721 5721 5721 5721 5720 5719 5719 5720 5720 5720 5720 5720 5721 5721 5722 5723 5724 5725 5725 5725 5725 5723 5721 5721 5721 5721 5720 5719 5719 5720 5720 5721 5722 5722 5722 5722 5722 5722 5721 5721 5720 5720 5720 5719 5718 5718 5717 5716 5716 5715 5714 5713 5712 5712 5711 5710 5709 5708 5708
5705 5705 5706 5707 5707 5708 5708 5709 5710 5711 5711 5712 5713 5714 5714 5715 5715 5716 5717 5718 5717 5717 5717 5716 5716 5716 5716 5716 5717 5717 5715 5714 5714 5715 5716 5716 5716 5716 5716 5716 5717 5717 5718 5719 5720 5720 5720 5719 5717 5717 5717 5717 5715 5714 5714 5715 5716 5716 5717 5717 5717 5717 5717 5717 5717 5716 5716 5715 5715 5714 5714 5713 5712 5711 5710 5709 5709 5708 5707 5706 5705 5704 5704 5703 5701
5700 5701 5702 5703 5703 5703 5704 5704 5705 5706 5706 5707 5708 5708 5709 5709 5710 5710 5711 5712 5713 5712 5712 5711 5711 5710 5710 5711 5711 5711 5711 5710 5709 5710 5711 5712 5712 5712 5711 5711 5712 5712 5712 5713 5714 5715 5715 5714 5713 5713 5713 5712 5710 5709 5710 5710 5711 5712 5712 5712 5713 5713 5713 5713 5712 5712 5711 5711 5710 5709 5709 5708 5707 5706 5705 5704 5703 5702 5701 5700 5699 5698 5697 5696 5694
5695 5696 5696 5697 5698 5698 5698 5699 5699 5700 5700 5701 5701 5702 5703 5703 5704 5704 5705 5706 5706 5707 5706 5706 5706 5705 5705 5705 5705 5705 5705 5705 5705 5705 5705 5706 5707 5707 5707 5706 5707 5707 5707 5708 5708 5709 5710 5710 5709 5708 5708 5706 5704 5704 5705 5705 5706 5707 5707 5707 5708 5708 5708 5708 5707 5707 5706 5706 5705 5704 5703 5702 5701 5700 5699 5698 5697 5696 5695 5694 5692 5691 5690 5689 5688
5689 5690 5690 5691 5691 5691 5692 5692 5692 5693 5694 5694 5695 5696 5696 5696 5696 5697 5698 5699 5700 5700 5700 5701 5701 5700 5700 5699 5699 5700 5699 5698 5697 5698 5699 5700 5700 5700 5700 5701 5701 5702 5702 5701 5702 5703 5704 5705 5704 5703 5703 5702 5700 5699 5700 5700 5701 5702 5702 5702 5703 5703 5703 5703 5702 5702 5701 5700 5700 5698 5698 5697 5696 5695 5693 5692 5691 5689 5688 5687 5685 5684 5683 5682 5681
5683 5684 5684 5684 5685 5685 5685 5686 5686 5687 5687 5687 5688 5689 5689 5689 5689 5689 5690 5691 5692 5693 5694 5695 5696 5696 5695 5694 5694 5695 5694 5692 5690 5691 5692 5693 5693 5693 5694 5695 5695 5696 5695 5695 5696 5698 5699 5699 5699 5698 5697 5697 5696 5695 5695 5696 5696 5696 5697 5697 5698 5698 5698 5697 5696 5696 5696 5695 5694 5693 5692 5691 5690 5689 5688 5686 5685 5683 5682 5681 5679 5677 5676 5674 5673
5677 5677 5677 5678 5678 5678 5678 5679 5679 5679 5680 5680 5681 5682 5682 5682 5682 5682 5683 5683 5683 5684 5686 5688 5689 5689 5689 5689 5689 5689 5688 5686 5685 5686 5686 5686 5687 5687 5687 5689 5689 5689 5689 5689 5690 5691 5691 5692 5693 5692 5691 5691 5691 5690 5690 5691 5691 5691 5691 5691 5692 5693 5693 5692 5690 5690 5691 5689 5688 5688 5687 5686 5685 5683 5682 5680 5678 5676 5675 5673 5672 5670 5668 5667 5665
5670 5670 5670 5670 5670 5670 5670 5671 5671 5671 5672 5672 5672 5673 5674 5674 5675 5675 5675 5676 5676 5676 5677 5679 5681 5682 5683 5683 5683 5683 5682 5680 5678 5679 5680 5680 5680 5680 5681 5682 5683 5683 5683 5683 5683 5684 5685 5686 5686 5686 5686 5686 5686 5685 5685 5686 5686 5686 5686 5686 5686 5686 5687 5687 5685 5685 5685 5684 5683 5682 5681 5680 5679 5678 5676 5675 5673 5672 5669 5667 5665 5663 5661 5659 5657
5662 5663 5663 5663 5662 5662 5662 5662 5663 5663 5663 5663 5663 5664 5665 5665 5666 5667 5667 5668 5668 5668 5668 5670 5671 5672 5674 5675 5676 5676 5675 5673 5671 5671 5673 5673 5674 5674 5675 5675 5676 5677 5678 5678 5678 5679 5679 5680 5680 5681 5681 5681 5681 5681 5681 5680 5681 5680 5680 5680 5680 5680 5681 5681 5681 5680 5679 5678 5677 5677 5675 5674 5673 5671 5669 5668 5667 5665 5664 5662 5660 5657 5655 5652 5650
5655 5655 5655 5655 5654 5654 5654 5654 5654 5654 5654 5654 5654 5655 5655 5655 5656 5657 5658 5659 5659 5659 5660 5661 5662 5664 5665 5666 5667 5667 5667 5666 5665 5665 5666 5667 5667 5668 5669 5669 5669 5670 5671 5671 5672 5673 5673 5674 5674 5675 5676 5676 5676 5676 5676 5676 5676 5675 5675 5675 5675 5675 5674 5675 5675 5674 5673 5672 5671 5670 5669 5667 5665 5663 5662 5660 5659 5657 5656 5654 5652 5650 5648 5645 5643
5647 5647 5647 5647 5646 5646 5645 5645 5645 5645 5645 5645 5645 5645 5646 5646 5647 5647 5648 5649 5650 5650 5651 5652 5654 5656 5657 5657 5658 5658 5658 5657 5658 5658 5659 5660 5660 5661 5662 5663 5663 5663 5664 5665 5666 5667 5667 5667 5668 5669 5670 5670 5671 5671 5671 5671 5671 5670 5670 5670 5670 5670 5669 5669 5669 5668 5667 5666 5665 5664 5662 5660 5658 5657 5655 5653 5652 5650 5648 5646 5644 5643 5641 5638 5636
5638 5638 5637 5637 5637 5637 5636 5635 5635 5635 5635 5635 5636 5636 5637 5637 5638 5639 5639 5639 5640 5642 5643 5643 5645 5647 5649 5650 5651 5650 5648 5649 5650 5649 5651 5653 5653 5654 5655 5656 5657 5657 5658 5659 5660 5661 5660 5661 5662 5663 5663 5664 5665 5665 5665 5666 5665 5665 5665 5665 5665 5664 5664 5663 5663 5662 5661 5660 5659 5657 5656 5654 5652 5650 5648 5646 5645 5643 5640 5639 5637 5635 5633 5631 5629
5629 5628 5628 5628 5628 5628 5627 5627 5627 5626 5626 5626 5626 5627 5628 5628 5629 5630 5631 5631 5632 5633 5634 5634 5636 5638 5640 5643 5644 5642 5641 5643 5642 5640 5642 5644 5645 5647 5648 5649 5650 5651 5652 5653 5654 5654 5654 5655 5656 5657 5657 5658 5659 5659 5659 5660 5660 5660 5660 5660 5659 5659 5658 5658 5657 5656 5655 5654 5652 5651 5649 5647 5645 5644 5642 5640 5637 5635 5633 5631 5629 5627 5625 5623 5621
5620 5620 5619 5619 5619 5619 5618 5618 5618 5617 5617 5617 5616 5617 5618 5618 5619 5621 5622 5621 5622 5624 5625 5626 5628 5630 5631 5633 5635 5635 5636 5636 5634 5632 5633 5636 5637 5639 5640 5641 5643 5644 5645 5646 5647 5647 5648 5649 5649 5650 5651 5652 5652 5653 5653 5654 5654 5654 5654 5654 5654 5653 5653 5652 5651 5650 5649 5647 5646 5644 5643 5641 5638 5636 5634 5632 5630 5628 5626 5624 5622 5620 5618 5616 5614
5611 5610 5610 5609 5609 5609 5608 5608 5608 5607 5607 5607 5607 5607 5607 5608 5608 5610 5612 5613 5613 5615 5617 5619 5620 5620 5623 5625 5625 5625 5627 5627 5626 5625 5626 5628 5629 5631 5632 5634 5635 5637 5638 5639 5640 5640 5641 5642 5643 5644 5645 5646 5647 5647 5647 5648 5648 5648 5649 5648 5648 5647 5647 5646 5645 5644 5643 5641 5639 5638 5636 5634 5631 5629 5627 5625 5622 5620 5618 5617 5615 5613 5611 5609 5607
5602 5601 5600 5599 5599 5598 5598 5597 5597 5597 5597 5596 5596 5597 5597 5597 5597 5599 5601 5603 5603 5604 5607 5612 5612 5612 5615 5616 5615 5615 5618 5619 5618 5618 5619 5621 5622 5623 5625 5626 5628 5629 5631 5632 5633 5634 5635 5636 5637 5638 5639 5640 5641 5641 5642 5642 5642 5643 5643 5642 5642 5641 5641 5640 5639 5638 5637 5635 5633 5631 5629 5626 5624 5622 5620 5617 5615 5613 5611 5610 5608 5606 5604 5603 5601
5592 5592 5591 5590 5588 5588 5587 5586 5586 5586 5587 5586 5585 5585 5586 5586 5587 5587 5588 5590 5592 5594 5598 5603 5604 5604 5606 5607 5605 5606 5608 5610 5610 5611 5612 5613 5614 5616 5617 5618 5621 5623 5624 5625 5626 5627 5628 5629 5631 5632 5633 5634 5634 5635 5636 5636 5636 5636 5636 5635 5636 5636 5635 5634 5633 5632 5631 5629 5626 5623 5621 5619 5617 5615 5613 5611 5609 5607 5605 5604 5602 5600 5599 5597 5595
5583 5582 5581 5580 5579 5578 5577 5576 5576 5575 5576 5575 5575 5574 5575 5575 5576 5576 5576 5577 5581 5584 5587 5590 5593 5594 5597 5598 5597 5596 5598 5601 5605 5605 5604 5605 5608 5610 5611 5613 5615 5616 5617 5617 5619 5620 5621 5622 5624 5625 5626 5627 5628 5629 5630 5630 5630 5630 5630 5629 5629 5630 5629 5628 5627 5625 5623 5621 5619 5616 5614 5612 5610 5608 5607 5605 5604 5602 5600 5599 5597 5595 5593 5591 5589
5574 5573 5572 5571 5570 5568 5567 5566 5566 5565 5564 5564 5564 5563 5563 5564 5565 5565 5565 5566 5569 5573 5575 5578 5580 5583 5587 5589 5588 5586 5588 5593 5596 5597 5597 5599 5602 5604 5605 5607 5609 5609 5609 5610 5611 5613 5614 5615 5617 5618 5620 5621 5622 5623 5623 5623 5624 5625 5625 5624 5624 5624 5623 5621 5619 5617 5615 5614 5612 5609 5608 5606 5605 5603 5602 5600 5599 5597 5596 5594 5592 5590 5588 5586 5584
5566 5565 5563 5562 5561 5560 5558 5557 5556 5555 5554 5554 5553 5553 5553 5553 5553 5554 5554 5555 5557 5560 5563 5566 5568 5571 5575 5578 5578 5578 5581 5584 5587 5589 5591 5594 5596 5597 5599 5600 5600 5601 5602 5603 5604 5606 5607 5609 5610 5611 5613 5614 5616 5616 5617 5618 5618 5618 5619 5619 5619 5618 5616 5614 5612 5610 5609 5607 5606 5604 5602 5601 5600 5599 5597 5596 5595 5593 5592 5590 5588 5586 5584 5581 5578
5558 5557 5556 5555 5554 5553 5551 5550 5549 5548 5547 5546 5545 5544 5544 5544 5544 5544 5544 5545 5546 5548 5551 5554 5556 5560 5563 5565 5567 5570 5573 5576 5579 5583 5586 5587 5589 5590 5591 5592 5593 5594 5595 5596 5598 5599 5601 5602 5603 5605 5607 5609 5610 5611 5611 5612 5612 5613 5613 5613 5612 5611 5609 5607 5605 5604 5603 5602 5601 5599 5598 5597 5596 5595 5594 5593 5591 5590 5588 5586 5584 5581 5579 5576 5572
5552 5551 5550 5548 5547 5546 5545 5544 5543 5542 5541 5540 5538 5537 5537 5537 5536 5536 5536 5537 5537 5539 5541 5543 5545 5549 5551 5553 5556 5561 5565 5568 5572 5575 5577 5579 5581 5583 5584 5584 5586 5587 5589 5590 5592 5594 5595 5596 5598 5600 5602 5603 5605 5605 5606 5607 5607 5607 5607 5606 5605 5604 5603 5601 5600 5599 5598 5597 5596 5595 5594 5594 5593 5592 5591 5589 5588 5587 5584 5582 5580 5577 5573 5570 5567
5547 5546 5544 5543 5542 5541 5540 5538 5537 5535 5534 5533 5532 5531 5530 5529 5529 5528 5528 5529 5530 5531 5533 5535 5536 5538 5541 5543 5546 5550 5556 5560 5563 5566 5568 5570 5573 5575 5577 5579 5581 5582 5583 5585 5586 5588 5590 5591 5593 5595 5597 5598 5600 5600 5601 5602 5602 5601 5601 5600 5599 5598 5597 5596 5595 5594 5594 5593 5592 5591 5591 5590 5590 5589 5588 5587 5585 5584 5581 5578 5575 5572 5568 5565 5563
5543 5542 5541 5539 5538 5537 5535 5533 5531 5529 5527 5525 5524 5522 5521 5521 5521 5521 5521 5521 5523 5524 5525 5527 5529 5530 5532 5534 5537 5541 5546 5550 5554 5558 5561 5563 5566 5568 5571 5574 5576 5576 5577 5579 5581 5582 5584 5585 5587 5590 5592 5593 5594 5595 5596 5596 5596 5596 5596 5595 5594 5593 5592 5591 5591 5590 5590 5589 5589 5588 5588 5587 5587 5586 5586 5584 5583 5580 5578 5575 5571 5567 5564 5562 5560
5539 5538 5537 5536 5534 5532 5530 5527 5524 5521 5519 5516 5513 5512 5511 5511 5511 5512 5512 5514 5515 5517 5518 5520 5522 5523 5525 5527 5529 5533 5537 5542 5546 5550 5554 5557 5559 5562 5566 5569 5569 5568 5570 5573 5575 5576 5578 5580 5582 5584 5586 5588 5589 5590 5590 5591 5591 5591 5591 5590 5589 5588 5587 5587 5587 5586 5586 5586 5586 5585 5585 5585 5585 5584 5583 5582 5580 5578 5575 5571 5567 5563 5560 5559 5557
5536 5535 5533 5531 5529 5527 5524 5521 5517 5514 5509 5505 5502 5500 5500 5500 5501 5502 5504 5506 5508 5510 5512 5515 5517 5517 5519 5521 5523 5526 5529 5533 5538 5543 5547 5550 5553 5558 5562 5563 5562 5561 5563 5567 5569 5570 5573 5575 5577 5579 5581 5582 5583 5584 5585 5586 5586 5586 5586 5586 5585 5584 5584 5583 5583 5583 5583 5583 5583 5583 5583 5583 5582 5582 5581 5579 5577 5575 5572 5569 5565 5561 5558 5556 5555
5533 5531 5529 5527 5525 5522 5518 5514 5509 5504 5499 5494 5491 5490 5489 5490 5491 5493 5496 5499 5502 5504 5508 5512 5513 5513 5514 5516 5518 5520 5523 5526 5531 5537 5541 5545 5549 5553 5556 5557 5556 5556 5559 5563 5565 5566 5569 5571 5572 5574 5576 5577 5578 5580 5581 5582 5582 5581 5581 5581 5581 5580 5580 5580 5580 5580 5580 5580 5580 5580 5580 5580 5580 5579 5578 5577 5575 5573 5570 5567 5563 5559 5556 5554 5552
5529 5528 5526 5523 5520 5516 5512 5507 5501 5495 5489 5486 5484 5484 5484 5484 5486 5488 5491 5495 5498 5501 5504 5507 5509 5509 5509 5511 5513 5515 5518 5521 5526 5531 5535 5539 5543 5547 5550 5551 5551 5552 5555 5559 5561 5562 5564 5566 5568 5570 5571 5572 5574 5576 5577 5577 5577 5577 5577 5577 5577 5576 5576 5576 5576 5576 5577 5577 5577 5578 5578 5578 5577 5577 5575 5574 5572 5570 5568 5566 5562 5558 5554 5551 5550
5526 5524 5522 5519 5516 5512 5507 5501 5494 5488 5484 5482 5481 5481 5481 5482 5483 5486 5489 5492 5496 5499 5501 5503 5505 5505 5505 5508 5510 5512 5514 5517 5521 5526 5531 5534 5537 5540 5543 5545 5546 5548 5550 5553 5555 5557 5559 5561 5563 5565 5566 5568 5570 5571 5571 5572 5573 5573 5573 5573 5573 5573 5573 5573 5573 5573 5574 5574 5575 5575 5575 5575 5575 5574 5573 5572 5570 5568 5566 5564 5561 5557 5553 5550 5548
5523 5521 5519 5516 5512 5508 5503 5496 5489 5484 5481 5480 5479 5479 5479 5480 5482 5484 5487 5491 5495 5497 5499 5500 5502 5502 5502 5504 5506 5508 5510 5513 5517 5522 5527 5530 5533 5535 5537 5540 5542 5544 5546 5548 5550 5553 5554 5556 5558 5560 5562 5564 5565 5566 5567 5567 5569 5569 5569 5569 5569 5569 5569 5569 5570 5570 5571 5572 5572 5573 5573 5573 5573 5572 5571 5569 5567 5566 5564 5561 5559 5556 5552 5548 5546
5521 5519 5516 5513 5510 5506 5500 5493 5487 5483 5481 5479 5479 5479 5479 5480 5482 5484 5487 5490 5492 5494 5495 5497 5499 5498 5499 5500 5503 5504 5506 5510 5515 5519 5522 5525 5528 5530 5533 5536 5538 5539 5541 5543 5546 5548 5549 5551 5554 5556 5558 5559 5561 5562 5563 5564 5565 5565 5565 5565 5565 5565 5566 5566 5567 5567 5568 5569 5570 5570 5570 5570 5570 5569 5568 5567 5565 5563 5561 5559 5557 5554 5550 5547 5545
5519 5517 5514 5511 5508 5504 5499 5493 5487 5483 5481 5480 5480 5480 5480 5482 5484 5486 5487 5489 5490 5492 5493 5495 5496 5496 5496 5498 5500 5502 5505 5508 5512 5516 5519 5521 5524 5527 5529 5532 5533 5535 5537 5539 5541 5543 5545 5547 5550 5552 5553 5555 5557 5558 5559 5560 5561 5561 5561 5561 5562 5562 5562 5563 5564 5565 5566 5566 5567 5568 5568 5568 5568 5567 5565 5564 5563 5561 5559 5557 5555 5552 5549 5546 5544
5517 5515 5512 5510 5506 5503 5498 5493 5488 5485 5483 5482 5481 5481 5482 5483 5485 5486 5488 5489 5490 5491 5491 5492 5493 5494 5495 5496 5498 5500 5503 5506 5509 5513 5516 5518 5521 5524 5526 5527 5528 5530 5532 5534 5536 5538 5540 5543 5546 5547 5549 5551 5552 5553 5554 5556 5556 5557 5557 5557 5558 5558 5559 5560 5561 5562 5563 5564 5564 5565 5565 5565 5565 5564 5563 5561 5560 5559 5557 5555 5553 5551 5548 5546 5543
5515 5513 5511 5508 5505 5502 5499 5494 5490 5487 5485 5483 5483 5483 5484 5484 5485 5486 5487 5489 5489 5490 5490 5491 5492 5493 5494 5495 5496 5498 5501 5503 5506 5509 5512 5515 5518 5521 5522 5523 5525 5526 5528 5530 5532 5535 5537 5539 5541 5543 5544 5546 5548 5549 5550 5551 5552 5552 5553 5554 5555 5556 5556 5557 5558 5559 5560 5561 5561 5562 5562 5562 5562 5561 5560 5559 5558 5556 5555 5553 5551 5549 5547 5545 5542
5514 5512 5509 5507 5504 5502 5499 5496 5492 5489 5487 5485 5485 5485 5485 5485 5486 5487 5487 5488 5489 5490 5490 5491 5491 5492 5493 5494 5495 5496 5498 5501 5504 5507 5509 5511 5514 5517 5519 5521 5522 5524 5525 5527 5530 5532 5534 5536 5538 5539 5540 5542 5543 5544 5546 5547 5548 5548 5549 5550 5552 5553 5554 5555 5556 5556 5557 5558 5559 5559 5559 5559 5559 5558 5557 5556 5555 5554 5553 5551 5549 5548 5546 5544 5541
5514 5511 5509 5506 5504 5502 5500 5497 5494 5491 5489 5487 5486 5486 5486 5486 5486 5487 5488 5488 5489 5490 5490 5490 5491 5491 5492 5493 5494 5495 5496 5498 5501 5504 5507 5509 5512 5514 5517 5519 5521 5522 5524 5525 5527 5529 5531 5533 5534 5536 5537 5538 5539 5540 5541 5543 5544 5545 5546 5548 5549 5550 5551 5552 5553 5554 5554 5555 5556 5556 5556 5556 5556 5555 5555 5554 5553 5552 5551 5549 5548 5546 5544 5543 5541
5514 5511 5509 5507 5505 5502 5500 5498 5496 5494 5492 5489 5488 5486 5486 5486 5486 5487 5487 5488 5488 5489 5490 5490 5490 5491 5492 5492 5493 5494 5495 5497 5500 5503 5506 5508 5510 5513 5515 5517 5519 5520 5522 5523 5525 5527 5529 5530 5532 5533 5534 5535 5536 5537 5538 5539 5541 5542 5544 5545 5547 5548 5549 5549 5550 5551 5552 5552 5553 5553 5553 5553 5553 5552 5552 5551 5551 5550 5549 5548 5546 5545 5543 5541 5540
5514 5512 5510 5507 5505 5503 5501 5499 5497 5496 5494 5492 5491 5489 5488 5487 5487 5488 5488 5488 5489 5489 5489 5490 5490 5491 5491 5491 5491 5492 5494 5496 5499 5502 5505 5508 5510 5512 5513 5515 5517 5519 5520 5522 5524 5525 5527 5528 5529 5530 5531 5532 5533 5534 5536 5537 5539 5540 5542 5543 5544 5545 5546 5547 5547 5548 5549 5549 5550 5550 5550 5550 5550 5550 5549 5549 5548 5548 5547 5546 5545 5543 5542 5540 5539
5514 5513 5510 5508 5506 5504 5502 5501 5499 5497 5496 5495 5493 5492 5491 5490 5490 5490 5490 5490 5490 5490 5490 5490 5491 5491 5491 5491 5491 5492 5494 5497 5500 5503 5506 5508 5510 5512 5513 5515 5516 5518 5519 5521 5522 5523 5524 5525 5526 5527 5528 5530 5531 5532 5534 5535 5537 5538 5540 5541 5542 5542 5543 5544 5544 5545 5546 5546 5546 5547 5547 5547 5547 5547 5547 5546 5546 5545 5544 5544 5543 5542 5540 5539 5538